Tracking 35331 objects as of 14-Sep-2026
HD Live streaming from Space Station
objects crossing your sky now

STARLINK-35898

Track STARLINK-35898 now!
10-day predictions
STARLINK-35898 is classified as:


NORAD ID: 66826
Int'l Code: 2025-280F
Launch date: December 31, 2025
Source: United States (US)
Launch site: AIR FORCE WESTERN TEST RANGE (AFWTR)
Your satellite tracking list
Your tracking list is empty




NASA's NSSDC Master Catalog

Two Line Element Set (TLE):
1 66826U 25280F   26256.91076403 -.00001263  00000-0 -98093-4 0  9993
2 66826  70.0011 219.7194 0003208 269.6687  90.4105 14.98323425 44276
Source of the keplerian elements: AFSPC